Starlink 11648

operational
NORAD ID: 63313 Int'l Des: 2025-057 Owner: SPXS Country: US Constellation: starlink
LEOCIRCULAR

Starlink 11648について

説明を読み込み中...

リアルタイム位置

3D地球を読み込み中...

次回通過

高度履歴

Altitude vs Time

uPlot chart will show altitude changes over time

軌道要素

1 63313U 25057G 25307.72009696 .00272504 00000-0 20459-2 0 9993
2 63313 42.9986 304.0328 0000570 5.8364 354.2510 15.70982852 37360
Epoch: Nov 3, 2025 • Age: 12 hours

現在のステータス

高度 359.4 km
速度 7.69 km/s
衛星直下点 -17.60°S, 24.68°E
打ち上げ日 Mar 18, 2025
運用期間 0.6 years
タイプ internet

技術仕様

分類 Payload
質量 960.00 kg
乾燥質量 910.00 kg
総質量 960.00 kg
長さ 0.30 m
直径 4.10 m
スパン 29.00 m
形状 Box + pan
製造者 SPXS
バスタイプ Starlink V2MD
フェーズステータス In Orbit
所有者/国 SPXS/US

大規模コンステレーション

Loading constellations...